| time (UTC) | temp C | wind direction | speed KPH | gust KPH | rain 1hr cm | rain 24hr cm | rain mn cm | humidity % | barometer mb |
| 20260902001036 | 15 | 157 | 1.6 | 4.8 | 0.03 | 1.17 | 1.17 | 84 | 1022.8 |
| 20260902000937 | 15 | 157 | 0.0 | 0.0 | 0.03 | 1.17 | 1.17 | 84 | 1022.7 |
| 20260901235937 | 15 | 112 | 0.0 | 0.0 | 0.03 | 1.17 | 1.17 | 84 | 1022.5 |
| 20260901234939 | 16 | 202 | 0.0 | 0.0 | 0.03 | 1.17 | 1.17 | 84 | 1022.6 |
| 20260901233936 | 16 | 157 | 0.0 | 1.6 | 0.03 | 1.17 | 1.17 | 84 | 1022.5 |
| 20260901230938 | 16 | 112 | 0.0 | 0.0 | 0.00 | 1.14 | 1.14 | 83 | 1022.5 |
| 20260901230036 | 16 | 112 | 0.0 | 0.0 | 0.00 | 1.14 | 1.14 | 84 | 1022.4 |
| 20260901225056 | 16 | 112 | 0.0 | 0.0 | 0.00 | 1.14 | 1.14 | 84 | 1022.4 |
| 20260901224136 | 16 | 112 | 0.0 | 0.0 | 0.00 | 1.14 | 1.14 | 84 | 1022.2 |
| 20260901223137 | 16 | 112 | 0.0 | 0.0 | 0.00 | 1.14 | 1.14 | 84 | 1022.3 |
| 20260901222140 | 16 | 112 | 0.0 | 0.0 | 0.00 | 1.14 | 1.14 | 84 | 1022.2 |
| 20260901221138 | 16 | 112 | 0.0 | 0.0 | 0.03 | 1.14 | 1.14 | 83 | 1022.1 |
| 20260901221038 | 16 | 112 | 0.0 | 0.0 | 0.03 | 1.14 | 1.14 | 84 | 1022.0 |
| 20260901220137 | 16 | 112 | 0.0 | 0.0 | 0.03 | 1.14 | 1.14 | 83 | 1022.0 |
| 20260901214138 | 16 | 22 | 0.0 | 0.0 | 0.03 | 1.14 | 1.14 | 84 | 1022.0 |
| 20260901213139 | 16 | 22 | 0.0 | 0.0 | 0.03 | 1.14 | 1.14 | 84 | 1022.0 |
| 20260901212139 | 16 | 22 | 0.0 | 0.0 | 0.05 | 1.14 | 1.14 | 83 | 1021.8 |
| 20260901212036 | 16 | 22 | 0.0 | 0.0 | 0.05 | 1.14 | 1.14 | 84 | 1021.8 |
| 20260901211936 | 16 | 22 | 0.0 | 0.0 | 0.05 | 1.14 | 1.14 | 84 | 1021.8 |
| 20260901210037 | 16 | 22 | 0.0 | 0.0 | 0.05 | 1.12 | 1.12 | 83 | 1021.9 |
| 20260901205039 | 16 | 22 | 0.0 | 0.0 | 0.08 | 1.12 | 1.12 | 83 | 1021.8 |
| 20260901204938 | 16 | 22 | 0.0 | 0.0 | 0.08 | 1.12 | 1.12 | 83 | 1021.9 |
| 20260901203855 | 16 | 22 | 0.0 | 0.0 | 0.10 | 1.12 | 1.12 | 84 | 1021.6 |
| 20260901203753 | 16 | 22 | 0.0 | 0.0 | 0.10 | 1.12 | 1.12 | 84 | 1021.7 |
| 20260901202738 | 16 | 22 | 0.0 | 0.0 | 0.10 | 1.09 | 1.09 | 84 | 1021.6 |
| 20260901202636 | 16 | 22 | 0.0 | 0.0 | 0.13 | 1.09 | 1.09 | 83 | 1021.5 |
| 20260901202536 | 16 | 22 | 0.0 | 0.0 | 0.13 | 1.09 | 1.09 | 84 | 1021.6 |
| 20260901201538 | 16 | 22 | 0.0 | 0.0 | 0.13 | 1.09 | 1.09 | 84 | 1021.5 |
| 20260901194539 | 16 | 22 | 0.0 | 0.0 | 0.10 | 1.04 | 1.04 | 85 | 1021.5 |
| 20260901193553 | 16 | 22 | 0.0 | 0.0 | 0.10 | 1.02 | 1.02 | 84 | 1021.7 |
| 20260901192637 | 16 | 22 | 0.0 | 3.2 | 0.05 | 0.97 | 0.97 | 85 | 1021.5 |
| 20260901191638 | 16 | 337 | 0.0 | 0.0 | 0.05 | 0.97 | 0.97 | 85 | 1021.6 |
| 20260901190637 | 16 | 337 | 0.0 | 0.0 | 0.03 | 0.94 | 0.94 | 84 | 1021.7 |
| 20260901190553 | 16 | 337 | 0.0 | 0.0 | 0.03 | 0.94 | 0.94 | 84 | 1021.6 |
| 20260901185537 | 16 | 337 | 0.0 | 0.0 | 0.03 | 0.94 | 0.94 | 85 | 1021.5 |
| 20260901183539 | 15 | 337 | 0.0 | 0.0 | 0.03 | 0.91 | 0.91 | 85 | 1021.7 |
| 20260901181651 | 15 | 360 | 0.0 | 0.0 | 0.03 | 0.91 | 0.91 | 84 | 1021.7 |
| 20260901180639 | 15 | 360 | 0.0 | 0.0 | 0.05 | 0.91 | 0.91 | 85 | 1021.8 |
| 20260901174636 | 15 | 360 | 0.0 | 0.0 | 0.03 | 0.89 | 0.89 | 85 | 1021.7 |
| 20260901174541 | 15 | 360 | 0.0 | 0.0 | 0.03 | 0.89 | 0.89 | 84 | 1021.7 |
| 20260901173555 | 15 | 360 | 0.0 | 0.0 | 0.03 | 0.89 | 0.89 | 85 | 1021.6 |
| 20260901173436 | 15 | 360 | 0.0 | 0.0 | 0.03 | 0.89 | 0.89 | 85 | 1021.6 |
| 20260901172438 | 15 | 360 | 0.0 | 1.6 | 0.05 | 0.89 | 0.89 | 85 | 1021.6 |
| 20260901171439 | 15 | 180 | 0.0 | 0.0 | 0.03 | 0.86 | 0.86 | 84 | 1021.2 |
| 20260901170437 | 15 | 22 | 0.0 | 0.0 | 0.03 | 0.86 | 0.86 | 84 | 1021.2 |
| 20260901165437 | 15 | 180 | 1.6 | 3.2 | 0.05 | 0.86 | 0.86 | 84 | 1021.1 |
| 20260901165339 | 15 | 173 | 3.2 | 4.8 | 0.05 | 0.86 | 0.86 | 85 | 1021.1 |
| 20260901164339 | 15 | 22 | 0.0 | 1.6 | 0.05 | 0.86 | 0.86 | 85 | 1021.3 |
| 20260901160436 | 15 | 337 | 0.0 | 0.0 | 0.03 | 0.84 | 0.84 | 85 | 1021.7 |
| 20260901155437 | 15 | 337 | 0.0 | 0.0 | 0.00 | 0.81 | 0.81 | 85 | 1021.6 |
| 20260901155354 | 15 | 337 | 0.0 | 0.0 | 0.00 | 0.81 | 0.81 | 85 | 1021.6 |
| 20260901154437 | 15 | 315 | 0.0 | 1.6 | 0.00 | 0.81 | 0.81 | 85 | 1021.7 |
| 20260901153437 | 15 | 337 | 0.0 | 1.6 | 0.00 | 0.81 | 0.81 | 85 | 1021.5 |
| 20260901151438 | 15 | 22 | 0.0 | 1.6 | 0.00 | 0.81 | 0.81 | 84 | 1021.3 |
| 20260901150440 | 15 | 22 | 0.0 | 0.0 | 0.00 | 0.81 | 0.81 | 84 | 1021.3 |
| 20260901144539 | 15 | 337 | 0.0 | 0.0 | 0.00 | 0.81 | 0.81 | 85 | 1021.3 |
| 20260901143553 | 15 | 15 | 1.6 | 3.2 | 0.00 | 0.81 | 0.81 | 84 | 1021.4 |
| 20260901141651 | 15 | 315 | 0.0 | 0.0 | 0.00 | 0.81 | 0.81 | 85 | 1021.4 |
| 20260901140739 | 15 | 315 | 0.0 | 0.0 | 0.00 | 0.81 | 0.81 | 85 | 1021.5 |
| 20260901134837 | 15 | 315 | 0.0 | 0.0 | 0.00 | 0.81 | 0.81 | 86 | 1021.4 |
| 20260901133935 | 15 | 292 | 0.0 | 0.0 | 0.03 | 0.81 | 0.81 | 86 | 1021.4 |
| 20260901132936 | 15 | 292 | 0.0 | 0.0 | 0.08 | 0.81 | 0.81 | 86 | 1021.5 |
| 20260901131938 | 15 | 360 | 0.0 | 0.0 | 0.13 | 0.81 | 0.81 | 86 | 1021.5 |
| 20260901131839 | 15 | 360 | 0.0 | 0.0 | 0.13 | 0.81 | 0.81 | 86 | 1021.6 |
| 20260901130836 | 15 | 22 | 0.0 | 3.2 | 0.28 | 0.81 | 0.81 | 86 | 1021.4 |
| 20260901125837 | 15 | 337 | 0.0 | 0.0 | 0.43 | 0.81 | 0.81 | 86 | 1021.8 |
| 20260901124935 | 15 | 337 | 0.0 | 0.0 | 0.51 | 0.81 | 0.81 | 86 | 1022.0 |
| 20260901124836 | 15 | 337 | 0.0 | 0.0 | 0.51 | 0.81 | 0.81 | 86 | 1021.9 |
| 20260901123837 | 15 | 22 | 0.0 | 0.0 | 0.58 | 0.79 | 0.79 | 86 | 1022.0 |
| 20260901122837 | 16 | 180 | 0.0 | 3.2 | 0.69 | 0.71 | 0.71 | 86 | 1021.8 |
| 20260901121837 | 16 | 157 | 0.0 | 0.0 | 0.69 | 0.69 | 0.66 | 86 | 1021.9 |
| 20260901120854 | 16 | 157 | 0.0 | 0.0 | 0.53 | 0.53 | 0.53 | 85 | 1021.8 |
| 20260901115935 | 16 | 157 | 0.0 | 0.0 | 0.41 | 0.41 | 0.38 | 87 | 1022.0 |
| 20260901113935 | 16 | 157 | 0.0 | 0.0 | 0.20 | 0.20 | 0.20 | 88 | 1021.8 |
| 20260901113838 | 16 | 157 | 0.0 | 0.0 | 0.20 | 0.20 | 0.18 | 88 | 1021.8 |
| 20260901111936 | 17 | 157 | 0.0 | 0.0 | 0.00 | 0.00 | 0.00 | 88 | 1021.6 |
| 20260901111035 | 17 | 157 | 0.0 | 0.0 | 0.00 | 0.00 | 0.00 | 88 | 1021.4 |
| 20260901105036 | 17 | 157 | 0.0 | 0.0 | 0.00 | 0.00 | 0.00 | 87 | 1021.5 |
| 20260901104036 | 17 | 157 | 0.0 | 0.0 | 0.00 | 0.00 | 0.00 | 88 | 1021.4 |
| 20260901103037 | 17 | 157 | 0.0 | 0.0 | 0.00 | 0.00 | 0.00 | 89 | 1021.2 |
| 20260901102037 | 17 | 157 | 0.0 | 0.0 | 0.00 | 0.00 | 0.00 | 89 | 1021.2 |
| 20260901101135 | 16 | 157 | 0.0 | 0.0 | 0.00 | 0.00 | 0.00 | 88 | 1021.0 |
| 20260901101038 | 16 | 157 | 0.0 | 0.0 | 0.00 | 0.00 | 0.00 | 89 | 1020.9 |
| 20260901100036 | 16 | 157 | 0.0 | 0.0 | 0.00 | 0.00 | 0.00 | 89 | 1020.8 |
| 20260901095051 | 16 | 157 | 0.0 | 0.0 | 0.00 | 0.00 | 0.00 | 89 | 1020.7 |
| 20260901093036 | 16 | 157 | 0.0 | 0.0 | 0.00 | 0.00 | 0.00 | 89 | 1021.1 |
| 20260901092935 | 16 | 157 | 0.0 | 0.0 | 0.00 | 0.00 | 0.00 | 88 | 1021.0 |
| 20260901091937 | 16 | 157 | 0.0 | 0.0 | 0.00 | 0.00 | 0.00 | 89 | 1020.9 |
| 20260901090936 | 16 | 157 | 0.0 | 0.0 | 0.00 | 0.00 | 0.00 | 89 | 1020.9 |
| 20260901085953 | 16 | 157 | 0.0 | 0.0 | 0.00 | 0.00 | 0.00 | 89 | 1021.0 |
| 20260901084938 | 16 | 157 | 0.0 | 0.0 | 0.00 | 0.00 | 0.00 | 89 | 1020.9 |
| 20260901083937 | 16 | 157 | 0.0 | 0.0 | 0.00 | 0.00 | 0.00 | 88 | 1020.8 |
| 20260901082938 | 16 | 157 | 0.0 | 0.0 | 0.00 | 0.00 | 0.00 | 89 | 1020.9 |
| 20260901081037 | 17 | 157 | 0.0 | 0.0 | 0.00 | 0.00 | 0.00 | 89 | 1020.8 |
| 20260901075136 | 16 | 157 | 0.0 | 0.0 | 0.00 | 0.00 | 0.00 | 88 | 1020.8 |
| 20260901074137 | 17 | 157 | 0.0 | 0.0 | 0.00 | 0.00 | 0.00 | 89 | 1020.9 |
| 20260901073151 | 17 | 157 | 0.0 | 0.0 | 0.00 | 0.00 | 0.00 | 89 | 1021.1 |
| 20260901072236 | 16 | 157 | 0.0 | 0.0 | 0.00 | 0.00 | 0.00 | 89 | 1021.2 |
| 20260901071239 | 16 | 157 | 0.0 | 0.0 | 0.00 | 0.00 | 0.00 | 88 | 1021.4 |
| 20260901070238 | 16 | 157 | 0.0 | 0.0 | 0.00 | 0.00 | 0.00 | 89 | 1021.6 |
| 20260901064335 | 17 | 157 | 0.0 | 0.0 | 0.00 | 0.00 | 0.00 | 89 | 1021.4 |
| 20260901063335 | 17 | 157 | 0.0 | 0.0 | 0.00 | 0.00 | 0.00 | 89 | 1021.6 |
| 20260901062339 | 16 | 157 | 0.0 | 0.0 | 0.00 | 0.00 | 0.00 | 88 | 1021.8 |
| 20260901061435 | 16 | 157 | 0.0 | 0.0 | 0.00 | 0.00 | 0.00 | 89 | 1021.6 |
| 20260901060438 | 16 | 157 | 0.0 | 0.0 | 0.00 | 0.00 | 0.00 | 89 | 1021.6 |
| 20260901054635 | 16 | 157 | 0.0 | 0.0 | 0.00 | 0.00 | 0.00 | 89 | 1021.6 |
| 20260901053637 | 16 | 157 | 0.0 | 0.0 | 0.00 | 0.00 | 0.00 | 89 | 1021.7 |
| 20260901052735 | 16 | 157 | 0.0 | 0.0 | 0.00 | 0.00 | 0.00 | 88 | 1021.9 |
| 20260901051736 | 16 | 157 | 0.0 | 0.0 | 0.00 | 0.00 | 0.00 | 89 | 1021.7 |
| 20260901050737 | 16 | 157 | 0.0 | 0.0 | 0.00 | 0.00 | 0.00 | 88 | 1021.7 |
| 20260901045736 | 16 | 157 | 0.0 | 0.0 | 0.00 | 0.00 | 0.00 | 89 | 1021.6 |
| 20260901044734 | 16 | 157 | 0.0 | 0.0 | 0.00 | 0.00 | 0.00 | 88 | 1021.7 |
| 20260901043737 | 17 | 157 | 0.0 | 0.0 | 0.00 | 0.00 | 0.00 | 88 | 1021.8 |
| 20260901042738 | 17 | 157 | 0.0 | 0.0 | 0.00 | 0.00 | 0.00 | 87 | 1021.6 |
| 20260901034924 | 17 | 157 | 0.0 | 0.0 | 0.00 | 0.00 | 0.00 | 86 | 1021.7 |
| 20260901033925 | 17 | 157 | 0.0 | 0.0 | 0.00 | 0.00 | 0.00 | 86 | 1021.5 |
| 20260901032923 | 18 | 157 | 0.0 | 0.0 | 0.00 | 0.00 | 0.00 | 85 | 1021.6 |
| 20260901032826 | 18 | 157 | 0.0 | 0.0 | 0.00 | 0.00 | 0.00 | 85 | 1021.8 |
| 20260901031823 | 18 | 157 | 0.0 | 0.0 | 0.00 | 0.00 | 0.00 | 85 | 1021.8 |
| 20260901030839 | 18 | 157 | 0.0 | 0.0 | 0.00 | 0.00 | 0.00 | 84 | 1021.8 |
| 20260901025838 | 18 | 157 | 0.0 | 3.2 | 0.00 | 0.00 | 0.00 | 85 | 1021.9 |
| 20260901024823 | 18 | 157 | 0.0 | 0.0 | 0.00 | 0.00 | 0.00 | 85 | 1022.0 |
| 20260901023841 | 18 | 157 | 0.0 | 0.0 | 0.00 | 0.00 | 0.00 | 85 | 1021.6 |
| 20260901022925 | 18 | 157 | 0.0 | 0.0 | 0.00 | 0.00 | 0.00 | 85 | 1021.7 |
| 20260901021923 | 18 | 225 | 0.0 | 0.0 | 0.00 | 0.00 | 0.00 | 86 | 1021.7 |
| 20260901020924 | 18 | 225 | 0.0 | 0.0 | 0.00 | 0.00 | 0.00 | 85 | 1021.6 |
| 20260901020841 | 18 | 225 | 0.0 | 0.0 | 0.00 | 0.00 | 0.00 | 86 | 1021.7 |
| 20260901015923 | 18 | 225 | 0.0 | 0.0 | 0.00 | 0.00 | 0.00 | 85 | 1021.7 |
| 20260901014924 | 18 | 225 | 0.0 | 1.6 | 0.00 | 0.00 | 0.00 | 85 | 1021.8 |
| 20260901013941 | 18 | 225 | 0.0 | 0.0 | 0.00 | 0.00 | 0.00 | 85 | 1021.6 |
| 20260901012926 | 18 | 225 | 0.0 | 0.0 | 0.00 | 0.00 | 0.00 | 85 | 1021.8 |
| 20260901012827 | 18 | 225 | 0.0 | 0.0 | 0.00 | 0.00 | 0.00 | 84 | 1021.8 |
| 20260901011826 | 18 | 225 | 0.0 | 0.0 | 0.00 | 0.00 | 0.00 | 84 | 1021.8 |
| 20260901011724 | 18 | 225 | 0.0 | 0.0 | 0.00 | 0.00 | 0.00 | 84 | 1021.8 |
| 20260901010725 | 18 | 225 | 0.0 | 0.0 | 0.00 | 0.00 | 0.00 | 83 | 1022.0 |
| 20260901005726 | 18 | 225 | 0.0 | 0.0 | 0.00 | 0.00 | 0.00 | 84 | 1022.0 |
| 20260901004823 | 18 | 225 | 0.0 | 0.0 | 0.00 | 0.00 | 0.00 | 83 | 1021.9 |
| 20260901003922 | 18 | 225 | 0.0 | 0.0 | 0.00 | 0.00 | 0.00 | 82 | 1021.9 |
| 20260901003822 | 18 | 225 | 0.0 | 0.0 | 0.00 | 0.00 | 0.00 | 83 | 1021.8 |